FENGYUN 1C DEB, 29940

Orbit data source: Space-Track

FENGYUN 1C DEB, 29940 is space debris in SSO originally from a launch on Mon, 10 May 1999 UTC launched from the Taiyaun Space Center, China (TSC). Fengyun 1C debris stems from the Chinese weather satellite Fengyun-1C, which was intentionally destroyed by a Chinese anti-satellite missile in 2007. This event dramatically increased the amount of space debris, with thousands of trackable fragments posing hazards to satellites and human spaceflight. The Fengyun 1C debris cloud has become a focal point in discussions about space sustainability and the need for international regulations to prevent the creation of new debris.

Loading next visibility...
Identifier
29940, 1999-025JN
Orbit
SSO
Country
Flag of CNCN / PRC
Related business
Manufacturer
Unknown
Mission
Spacecraft
Bus & Motor
Unknown
Mass
Unknown
Launch date (UTC)
1999-05-10 (27 years ago)
Launch vehicle
Unknown
Launch site
Taiyaun Space Center, China (TSC)
Object type
Payload
Rocket body
Debris
Shape & HBR
Unknown shape, 0.1 m
Radar Cross Section
Medium (>0.1 m² and <1 m²)

Expand to show TLE details & history
Last TLE update: 14 hours ago

TLE from 14 hours ago
0 FENGYUN 1C DEB
1 29940U 99025JN  26254.95025854  .00000684  00000-0  33611-3 0  9991
2 29940  98.6194 262.2365 0074395  32.8189 356.0634 14.19405146 13408
Epoch: 2026-09-11T22:48Z
TLE epoch observation values (Epoch: 2026-09-11T22:48:22.337Z)
Latitude
28.51373°
Longitude
-75.5212°
Altitude
777.395 km
Speed
7.496 km/s
True Right ascension
17h 10m 09s
True Declination
28° 22' 12"
Sunlit
Object was in daylight at epoch
Visualization orbit readout
Latitude
Unknown
Longitude
Unknown
Altitude
Unknown
Speed
Unknown
Apparent Right ascension
Unknown
Apparent Declination
Unknown
Sunlit
N/A
Visualization observer readout
Local Sidereal Time
05:38:29
Azimuth
Unknown
Elevation
Unknown
Doppler factor
Unknown
Orbital elements
Apogee altitude
878.104 km
Perigee altitude
770.936 km
Semi-major axis
7,202.657 km
Eccentricity
0.00744
Inclination
98.6194°
RAAN
262.2365°
Arg. of periapsis
32.8189°
True anomaly
356.00433°
Mean anomaly
356.0634°
Eccentric anomaly
356.03392°
Mean motion
3.55062 °/min
Orbital period
101.39 mins
BSTAR
0.00033611
Loading maneuver chart data...
Computing Atmospheric mass density...
Loading historical data...
Loading historical data...
Loading historical data...
Loading historical data...
Loading historical data...
Loading historical data...
Loading historical data...

Documentation

Showing up to 5 results
|